Tracking 18624 objects as of 28-April-2017
HD Live streaming from Space Station
objects crossing your sky now

TERRIERS

Track TERRIERS now!
10-day predictions
TERRIERS is classified as:


NORAD ID: 25735
Int'l Code: 1999-026A
Perigee: 435.1 km
Apogee: 441.2 km
Inclination: 97.2 °
Period: 93.2 minutes
Semi major axis: 6809 km
RCS: 0.4968 m2 (medium)
Launch date: May 18, 1999
Source: United States (US)
Launch site: Pegasus launched from Western Range Air Space (WRAS)
Your satellite tracking list
Your tracking list is empty





NASA's NSSDC Master Catalog

Two Line Element Set (TLE):
1 25735U 99026A   17116.88805263 +.00003475 +00000-0 +75256-4 0  9992
2 25735 097.1767 283.2333 0004458 179.4356 180.6900 15.45113945998302
Source of the keplerian elements: AFSPC